{"data":{"norad_id":27651,"epoch":"2026-09-19T21:33:45.152064Z","epoch_age_seconds":66456,"freshness":"FRESH","line1":"1 27651U 03004A   26262.89843926  .00001793  00000+0  13758-3 0  9991","line2":"2 27651  39.9905  81.1263 0017282   7.5846 352.5207 15.04128225286166","mean_motion":15.04128225,"eccentricity":0.0017282,"inclination_deg":39.9905,"raan_deg":81.1263,"arg_perigee_deg":7.5846,"mean_anomaly_deg":352.5207,"bstar":0.00013758,"rev_number":28616,"period_min":95.73651873995,"perigee_km":542.20254769256,"apogee_km":566.1634184821,"semimajor_km":6932.3199830873,"source":"CELESTRAK","updated_at":"2026-09-20T09:00:47.141204Z"}}